| time (UTC) | temp F | wind direction | speed MPH | gust MPH | rain 1hr in | rain 24hr in | rain mn in | humidity % | barometer mb |
| 20260504040209 | 53 | 101 | 0.0 | 4.0 | 0.00 | 0.00 | 0.00 | 76 | 1009.9 |
| 20260504030209 | 54 | 119 | 0.0 | 0.0 | 0.00 | 0.00 | 0.00 | 75 | 1010.4 |
| 20260504020206 | 55 | 128 | 0.0 | 1.0 | 0.00 | 0.00 | 0.00 | 72 | 1010.4 |
| 20260504010207 | 56 | 138 | 0.0 | 0.0 | 0.00 | 0.00 | 0.00 | 65 | 1010.1 |
| 20260504000208 | 59 | 138 | 0.0 | 0.0 | 0.00 | 0.00 | 0.00 | 57 | 1010.4 |
| 20260503230210 | 60 | 115 | 0.0 | 2.0 | 0.00 | 0.00 | 0.00 | 55 | 1010.5 |
| 20260503210206 | 62 | 126 | 0.0 | 0.0 | 0.00 | 0.00 | 0.00 | 49 | 1010.3 |
| 20260503190206 | 63 | 346 | 0.0 | 0.0 | 0.00 | 0.00 | 0.00 | 45 | 1010.2 |
| 20260503180207 | 65 | 347 | 0.0 | 1.0 | 0.00 | 0.00 | 0.00 | 42 | 1010.5 |
| 20260503170206 | 66 | 330 | 0.0 | 8.0 | 0.00 | 0.00 | 0.00 | 37 | 1011.1 |
| 20260503160206 | 68 | 321 | 0.0 | 4.0 | 0.00 | 0.00 | 0.00 | 37 | 1010.8 |
| 20260503140207 | 73 | 340 | 6.0 | 15.0 | 0.00 | 0.00 | 0.00 | 27 | 1010.6 |
| 20260503130205 | 79 | 312 | 3.0 | 12.0 | 0.00 | 0.00 | 0.00 | 29 | 1010.3 |
| 20260503120206 | 78 | 312 | 1.0 | 10.0 | 0.00 | 0.00 | 0.00 | 33 | 1010.5 |
| 20260503110206 | 76 | 92 | 0.0 | 0.0 | 0.00 | 0.00 | 0.00 | 36 | 1010.7 |
| 20260503100206 | 71 | 135 | 0.0 | 1.0 | 0.00 | 0.00 | 0.00 | 40 | 1011.0 |
| 20260503090207 | 68 | 117 | 0.0 | 2.0 | 0.00 | 0.00 | 0.00 | 46 | 1011.1 |
| 20260503070208 | 63 | 130 | 0.0 | 1.0 | 0.00 | 0.00 | 0.00 | 60 | 1011.7 |
| 20260503060206 | 57 | 125 | 0.0 | 0.0 | 0.00 | 0.00 | 0.00 | 72 | 1011.5 |
| 20260503050207 | 56 | 125 | 0.0 | 1.0 | 0.00 | 0.00 | 0.00 | 75 | 1011.1 |